Regional Weather Roundup
Issued by NWS

Home | Current Version | Previous Version | Text Only | Print | Product List | Glossary On
Versions: 1 2 3 4 5 6 7 8 9 10 11 12 13 14 15 16 17 18 19 20 21 22 23 24 25 26 27 28 29 30 31 32 33 34 35 36 37 38 39 40 41 42 43 44 45 46 47 48 49 50
000
ASUS43 KDTX 292101
RWRMI
MICHIGAN HOURLY REGIONAL WEATHER ROUNDUP
NATIONAL WEATHER SERVICE DETROIT/PONTIAC MI
500 PM EDT MON JUN 29 2015

NOTE: "FAIR" INDICATES FEW OR NO CLOUDS BELOW 12,000 FEET WITH NO
SIGNIFICANT WEATHER AND/OR OBSTRUCTION TO VISIBILITY.

MIZ047>049-052>055-059>063-066>070-074>076-081>083-292200-
SOUTHEAST LOWER MICHIGAN

CITY           SKY/WX    TMP DP  RH WIND       PRES   REMARKS
ADRIAN         CLOUDY    68  57  68 S9        29.87F
ALMA           CLOUDY    72  56  58 S7        29.83F
ANN ARBOR      MOSUNNY   72  55  55 S10G17    29.85F
BAD AXE        SUNNY     79  49  35 S12G17    29.83F
CARO           MOSUNNY   76  60  56 S10       29.83S
DETROIT CITY   MOSUNNY   74  55  51 S14       29.87S
DETROIT        PTSUNNY   73  57  57 S10       29.87F
FLINT          PTSUNNY   75  59  57 S12       29.85F
GROSSE ILE       N/A     72  59  64 S6        29.87S
HILLSDALE      CLOUDY    65  58  77 SE8       29.86F
HOWELL         PTSUNNY   71  56  60 S9        29.86S

CITY           SKY/WX    TMP DP  RH WIND       PRES   REMARKS
JACKSON        CLOUDY    70  57  63 S13       29.85F
LAMBERTVILLE   CLOUDY    69  57  64 S7        29.87S
LANSING        MOSUNNY   73  57  57 SE13      29.84F
LAPEER         DRIZZLE   68  60  75 SW6       29.86S
MASON          PTSUNNY   68  57  67 SE7       29.85F
MONROE         CLOUDY    68  58  69 SE7       29.86S
MT. CLEMENS    PTSUNNY   71  56  58 S16       29.85S
PONTIAC        PTSUNNY   71  53  52 S12       29.86S
PORT HOPE        N/A    N/A N/A N/A MISG        N/A
PORT HURON     PTSUNNY   72  57  60 S14G21    29.87R
TRI CITIES     LGT RAIN  72  58  61 S17G28    29.84R
MIDLAND        FAIR      79  54  42 SW10      29.81F
TROY           MOSUNNY   73  50  44 S9        29.89S
SAGINAW HB     CLOUDY    72  54  53 S10       29.83S
$$
MIZ043>046-050>051-056>058-064>065-071>073-077>080-292200-
SOUTHWEST LOWER MICHIGAN

CITY           SKY/WX    TMP DP  RH WIND       PRES   REMARKS
BATTLE CREEK   PTSUNNY   72  59  63 S10       29.84S
BENTON HARBOR  PTSUNNY   72  62  71 SE7       29.81F
BIG RAPIDS     MOSUNNY   71  58  64 SW7       29.81F
COLDWATER      LGT RAIN  65  55  71 SE8G16    29.85S
FREMONT        FAIR      75  60  59 S8        29.81S
HOLLAND        CLOUDY    70  61  73 SW10      29.82F
GRAND RAPIDS   MOSUNNY   74  59  59 SE15      29.82F
IONIA          FAIR      75  56  51 S14       29.83F
KALAMAZOO      PTSUNNY   73  60  63 S13G20    29.83F
LUDINGTON      MOSUNNY   76  60  57 S9        29.80F
MARSHALL       PTSUNNY   70  58  66 S9        29.84F
MOUNT PLEASANT SUNNY     77  53  43 S9G16     29.81F
MUSKEGON       CLOUDY    71  61  70 SE13      29.82S
SOUTH HAVEN    RAIN      65  63  92 CALM      29.82F
$$
MIZ016>042-292200-
NORTHERN LOWER MICHIGAN

CITY           SKY/WX    TMP DP  RH WIND       PRES   REMARKS
ALPENA         MOSUNNY   80  55  42 SE14      29.78F
BEAVER ISLAND  SUNNY     76  51  40 SW6       29.78F
BELLAIRE       SUNNY     82  49  32 SW5       29.75F
CADILLAC       MOSUNNY   79  54  41 S9        29.80F
CHARLEVOIX     SUNNY     78  50  37 NW7       29.80F
FRANKFORT      SUNNY     74  53  47 W8        29.79F
GAYLORD        MOSUNNY   79  48  33 S10       29.79F
GRAYLING       PTSUNNY   78  51  38 S8        29.81S
HARBOR SPRINGS SUNNY     78  51  38 SW6       29.77F
HOUGHTON LAKE  SUNNY     79  51  37 S8G16     29.80F
MANISTEE       MOSUNNY   72  57  60 W13       29.80F
OSCODA         SUNNY     76  51  41 SE12      29.82F
PELLSTON       SUNNY     81  47  30 W9        29.77F
ROGERS CITY    MOSUNNY   79  55  44 SE10      29.77F
TRAVERSE CITY  PTSUNNY   82  53  36 N9        29.74F
$$
MIZ007>008-015-292200-
EASTERN UPPER MICHIGAN

CITY           SKY/WX    TMP DP  RH WIND       PRES   REMARKS
KINROSS        SUNNY     79  45  29 SW6G17    29.76F
MACKINAC ISLAN SUNNY     75  43  31 W6        29.77F
NEWBERRY       SUNNY     74  56  53 S12       29.76F
S. S. MARIE    SUNNY     80  49  33 SW12G18   29.75F
MUNISING         N/A     76  57  51 SW6       29.73R
$$
MIZ004>006-011>014-085-292200-
CENTRAL UPPER MICHIGAN

CITY           SKY/WX    TMP DP  RH WIND       PRES   REMARKS
MANISTIQUE     SUNNY     69  50  49 S10G17    29.77F
ESCANABA       PTSUNNY   73  55  53 S10G17    29.75S
MENOMINEE      MOSUNNY   77  55  47 S13G20    29.75S
SAWYER-GWINN   RAIN      66  61  82 SW8       29.77R
$$
MIZ001>003-009>011-084-292200-
WESTERN UPPER MICHIGAN

CITY           SKY/WX    TMP DP  RH WIND       PRES   REMARKS
IRON MOUNTAIN  CLOUDY    71  63  75 S6        29.74F
HOUGHTON       PTSUNNY   69  56  62 NW12      29.73S
COPPER HARBOR    N/A     58  55  90 CALM      29.73R
$$

ABBREVIATIONS USED IN REMARKS
   TC - TEMPERATURE IN CELSIUS
  WCI - WIND CHILL INDEX
   HX - HEAT INDEX
  VSB - VISIBILITY



USA.gov is the U.S. government's official web portal to all federal, state and local government web resources and services.